TimePDT,TemperatureF,Dew PointF,Humidity,Sea Level PressureIn,VisibilityMPH,Wind Direction,Wind SpeedMPH,Gust SpeedMPH,PrecipitationIn,Events,Conditions,WindDirDegrees,DateUTC
12:53 AM,50.0,45.0,83,29.86,10.0,Calm,Calm,-,N/A,,Clear,0,2013-05-21 07:53:00
1:53 AM,50.0,44.1,80,29.83,10.0,Calm,Calm,-,N/A,,Clear,0,2013-05-21 08:53:00
2:53 AM,52.0,44.1,74,29.81,10.0,Calm,Calm,-,N/A,,Clear,0,2013-05-21 09:53:00
3:53 AM,52.0,45.0,77,29.78,10.0,NNE,9.2,-,N/A,,Clear,20,2013-05-21 10:53:00
4:53 AM,52.0,44.1,74,29.75,10.0,North,-9999.0,-,N/A,,Clear,0,2013-05-21 11:53:00
5:53 AM,54.0,44.1,69,29.73,10.0,NNE,8.1,-,N/A,,Clear,30,2013-05-21 12:53:00
6:53 AM,57.0,45.0,64,29.71,10.0,NNE,10.4,-,N/A,,Clear,20,2013-05-21 13:53:00
7:53 AM,63.0,46.0,54,29.69,10.0,NNE,11.5,-,N/A,,Clear,30,2013-05-21 14:53:00
8:53 AM,66.9,46.0,47,29.68,10.0,NE,9.2,-,N/A,,Clear,50,2013-05-21 15:53:00
9:53 AM,70.0,44.1,39,29.65,10.0,Variable,6.9,-,N/A,,Partly Cloudy,0,2013-05-21 16:53:00
10:53 AM,72.0,41.0,33,29.62,10.0,SE,13.8,20.7,N/A,,Mostly Cloudy,130,2013-05-21 17:53:00
11:53 AM,72.0,44.1,37,29.60,10.0,SSE,13.8,-,N/A,,Clear,150,2013-05-21 18:53:00
12:53 PM,73.9,44.1,34,29.56,10.0,South,6.9,-,N/A,,Mostly Cloudy,170,2013-05-21 19:53:00
1:18 PM,69.8,46.4,43,29.59,10.0,SW,17.3,26.5,N/A,Thunderstorm,Mostly Cloudy,230,2013-05-21 20:18:00
1:41 PM,66.2,48.2,52,29.60,10.0,SSW,8.1,-,0.00,Rain-Thunderstorm,Light Rain,210,2013-05-21 20:41:00
1:53 PM,66.9,46.9,49,29.60,10.0,South,10.4,20.7,0.00,Thunderstorm,Mostly Cloudy,190,2013-05-21 20:53:00
2:02 PM,68.0,48.2,49,29.62,10.0,South,15.0,20.7,N/A,,Mostly Cloudy,170,2013-05-21 21:02:00
2:53 PM,64.9,43.0,45,29.63,10.0,SSW,16.1,-,N/A,,Scattered Clouds,200,2013-05-21 21:53:00
3:53 PM,57.9,45.0,62,29.70,10.0,SW,26.5,36.8,N/A,,Mostly Cloudy,230,2013-05-21 22:53:00
4:53 PM,53.1,39.9,61,29.73,10.0,SW,15.0,-,N/A,,Overcast,230,2013-05-21 23:53:00
5:53 PM,51.1,37.9,61,29.79,10.0,WSW,12.7,-,N/A,,Overcast,250,2013-05-22 00:53:00
6:53 PM,46.9,42.1,83,29.79,9.0,SSW,6.9,-,0.03,Rain,Light Rain,210,2013-05-22 01:53:00
7:53 PM,45.0,43.0,93,29.76,10.0,ENE,4.6,-,0.08,Rain,Light Rain,60,2013-05-22 02:53:00
8:53 PM,44.1,43.0,96,29.77,10.0,Calm,Calm,-,0.12,Rain,Light Rain,0,2013-05-22 03:53:00
9:00 PM,44.6,42.8,93,29.77,10.0,Calm,Calm,-,0.00,Rain,Light Rain,0,2013-05-22 04:00:00
9:09 PM,44.6,42.8,93,29.78,10.0,Calm,Calm,-,0.00,,Mostly Cloudy,0,2013-05-22 04:09:00
9:18 PM,44.6,42.8,93,29.79,10.0,Calm,Calm,-,0.00,,Overcast,0,2013-05-22 04:18:00
9:26 PM,44.6,42.8,93,29.79,10.0,Calm,Calm,-,0.00,,Overcast,0,2013-05-22 04:26:00
9:53 PM,45.0,43.0,93,29.78,10.0,West,3.5,-,0.00,,Overcast,270,2013-05-22 04:53:00
10:35 PM,44.6,42.8,93,29.80,10.0,Calm,Calm,-,N/A,,Scattered Clouds,0,2013-05-22 05:35:00
10:53 PM,44.1,42.1,93,29.78,10.0,Calm,Calm,-,N/A,,Scattered Clouds,0,2013-05-22 05:53:00
11:53 PM,42.1,41.0,96,29.78,8.0,WSW,3.5,-,N/A,,Scattered Clouds,250,2013-05-22 06:53:00